Weather History for Rochelle, IL

Change the Weather History Date:

Thursday, February 21, 2013

  Actual Average (KRFD) Record (KRFD)
Temperature  
Mean Temperature 19 °F 28 °F  
Max Temperature 27 °F 36 °F 64 °F (1930)
Min Temperature 11 °F 20 °F -10 °F (1963)
Degree Days  
Heating Degree Days 46 37  
Month to date heating degree days 844  
Since 1 July heating degree days 4753  
Cooling Degree Days 0 0  
Month to date cooling degree days 0  
Year to date cooling degree days 0  
Moisture  
Dew Point 19 °F    
Average Humidity 90    
Maximum Humidity 96    
Minimum Humidity 84    
Precipitation  
Precipitation 0.00 in 0.05 in 1.25 in (1913)
Month to date precipitation 0.98  
Year to date precipitation 2.35  
Snow  
Snow 0.00 in 0.30 in 6.00 in (1913)
Month to date snowfall 6.1  
Since 1 July snowfall 29.4  
Snow Depth -    
Sea Level Pressure  
Sea Level Pressure 30.21 in    
Wind  
Wind Speed 8 mph (ENE)    
Max Wind Speed 23 mph    
Max Gust Speed 30 mph    
Visibility 9 miles    
Events Snow    
T = Trace of Precipitation, MM = Missing Value Source: NWS Daily Summary

Daily Weather History Graph

Daily Weather History Graph

Search for Another Location

Airport:

Trip Planner

Search our weather history database for the weather conditions in past years. The results will help you decide how hot, cold, wet, or windy it might be!

Date:

Astronomy

Feb. 21, 2013 Rise Set
Actual Time 6:43 AM CST 5:37 PM CST
Civil Twilight 6:14 AM CST 6:05 PM CST
Nautical Twilight 5:42 AM CST 6:37 PM CST
Astronomical Twilight 5:10 AM CST 7:10 PM CST
Moon 1:49 PM CST 3:50 AM CST
Length of Visible Light 11h 50m
Length of Day
10h 54m
Waxing Gibbous, 84% of the Moon is Illuminated
Feb 21
Waxing Gibbous
Feb 25
Full
Mar 4
Last Quarter
Mar 11
New
Mar 19
First Quarter

Hourly Weather History & Observations

Time (CST) Temp. Windchill Dew Point Humidity Pressure Visibility Wind Dir Wind Speed Gust Speed Precip Events Conditions
12:15 AM 12.9 °F 6.9 °F 10.8 °F 91% 30.36 in 10.0 mi WNW 3.5 mph - N/A   Clear
12:35 AM 12.6 °F 6.5 °F 10.4 °F 91% 30.35 in 10.0 mi North 3.5 mph - N/A   Clear
12:55 AM 12.2 °F - 10.0 °F 91% 30.36 in 10.0 mi Calm Calm - N/A   Clear
1:15 AM 12.2 °F - 10.0 °F 91% 30.35 in 10.0 mi Calm Calm - N/A   Clear
1:35 AM 12.2 °F - 10.2 °F 92% 30.35 in 10.0 mi Calm Calm - N/A   Clear
1:55 AM 13.1 °F - 10.9 °F 91% 30.34 in 10.0 mi Calm Calm - N/A   Clear
2:15 AM 13.6 °F - 11.3 °F 90% 30.34 in 10.0 mi Calm Calm - N/A   Clear
2:35 AM 13.8 °F - 11.7 °F 91% 30.34 in 10.0 mi Calm Calm - N/A   Clear
2:55 AM 13.8 °F - 11.3 °F 90% 30.34 in 10.0 mi Calm Calm - N/A   Clear
3:15 AM 12.9 °F - 10.8 °F 91% 30.34 in 10.0 mi Calm Calm - N/A   Clear
3:35 AM 12.2 °F - 10.4 °F 92% 30.36 in 10.0 mi Calm Calm - N/A   Clear
3:55 AM 12.2 °F - 10.2 °F 92% 30.38 in 10.0 mi Calm Calm - N/A   Clear
4:15 AM 12.7 °F 6.7 °F 10.9 °F 92% 30.38 in 10.0 mi NW 3.5 mph - N/A   Clear
4:35 AM 12.2 °F 6.1 °F 10.2 °F 92% 30.36 in 10.0 mi North 3.5 mph - N/A   Clear
4:55 AM 11.5 °F 3.5 °F 9.5 °F 92% 30.33 in 10.0 mi NNE 4.6 mph - N/A   Clear
5:15 AM 12.4 °F 3.1 °F 10.2 °F 91% 30.33 in 10.0 mi NE 5.8 mph - N/A   Clear
6:15 AM 13.8 °F 6.2 °F 10.6 °F 87% 30.35 in 10.0 mi NE 4.6 mph - N/A   Overcast
6:35 AM 14.7 °F 7.3 °F 11.3 °F 86% 30.34 in 10.0 mi NE 4.6 mph - N/A   Overcast
6:55 AM 15.4 °F 9.8 °F 12.0 °F 86% 30.35 in 10.0 mi NE 3.5 mph - N/A   Overcast
7:15 AM 16.3 °F 9.2 °F 13.1 °F 87% 30.35 in 10.0 mi ENE 4.6 mph - N/A   Overcast
7:35 AM 17.1 °F 6.6 °F 14.0 °F 88% 30.35 in 10.0 mi NE 8.1 mph - N/A   Overcast
7:55 AM 18.3 °F 6.6 °F 15.6 °F 89% 30.33 in 10.0 mi NE 10.4 mph - N/A   Overcast
8:15 AM 19.4 °F 7.9 °F 17.2 °F 91% 30.32 in 10.0 mi NE 10.4 mph - N/A   Overcast
8:35 AM 20.8 °F 10.4 °F 18.5 °F 91% 30.34 in 10.0 mi NE 9.2 mph - N/A   Overcast
8:55 AM 21.4 °F 10.4 °F 19.0 °F 91% 30.34 in 10.0 mi NE 10.4 mph - N/A   Overcast
9:15 AM 22.1 °F 12.0 °F 19.9 °F 91% 30.33 in 10.0 mi NE 9.2 mph - N/A   Overcast
9:35 AM 23.4 °F 12.8 °F 20.8 °F 90% 30.34 in 10.0 mi NE 10.4 mph - N/A   Overcast
9:55 AM 23.9 °F 13.5 °F 21.4 °F 90% 30.34 in 10.0 mi NE 10.4 mph - N/A   Overcast
10:15 AM 24.3 °F 12.7 °F 21.6 °F 89% 30.34 in 10.0 mi ENE 12.7 mph - N/A   Overcast
10:35 AM 24.6 °F 13.8 °F 22.1 °F 90% 30.33 in 10.0 mi NE 11.5 mph - N/A   Overcast
10:55 AM 25.0 °F 13.6 °F 22.3 °F 89% 30.31 in 10.0 mi ENE 12.7 mph - N/A   Overcast
11:15 AM 25.2 °F 15.1 °F 22.5 °F 89% 30.31 in 10.0 mi NNE 10.4 mph - N/A   Overcast
11:35 AM 24.8 °F 12.4 °F 22.3 °F 90% 30.29 in 10.0 mi NE 15.0 mph - N/A   Overcast
12:15 PM 25.2 °F 12.4 °F 22.6 °F 90% 30.26 in 10.0 mi ENE 16.1 mph - N/A   Overcast
12:35 PM 25.3 °F 13.6 °F 23.0 °F 91% 30.24 in 10.0 mi ENE 13.8 mph - N/A   Overcast
12:55 PM 25.7 °F 13.1 °F 23.2 °F 90% 30.22 in 10.0 mi ENE 16.1 mph - N/A   Overcast
1:15 PM 26.1 °F 13.6 °F 23.7 °F 91% 30.20 in 10.0 mi ENE 16.1 mph - N/A   Overcast
1:35 PM 27.1 °F 14.5 °F 24.6 °F 90% 30.20 in 10.0 mi ENE 17.3 mph - N/A   Overcast
1:55 PM 27.3 °F 14.8 °F 24.8 °F 90% 30.20 in 10.0 mi ENE 17.3 mph - N/A   Overcast
2:15 PM 27.5 °F 15.0 °F 25.2 °F 91% 30.20 in 10.0 mi ENE 17.3 mph 23.0 mph N/A   Overcast
2:35 PM 27.9 °F 16.3 °F 25.3 °F 90% 30.21 in 10.0 mi ENE 15.0 mph - N/A   Overcast
2:55 PM 27.9 °F 15.5 °F 24.8 °F 88% 30.20 in 10.0 mi ENE 17.3 mph - N/A   Overcast
3:15 PM 27.5 °F 15.4 °F 24.8 °F 90% 30.19 in 10.0 mi ENE 16.1 mph - N/A   Overcast
3:35 PM 27.5 °F 15.4 °F 25.2 °F 91% 30.18 in 10.0 mi ENE 16.1 mph 21.9 mph N/A   Overcast
3:55 PM 27.5 °F 15.9 °F 25.2 °F 91% 30.18 in 10.0 mi ENE 15.0 mph 21.9 mph N/A   Overcast
4:15 PM 27.3 °F 15.2 °F 25.2 °F 92% 30.17 in 10.0 mi ENE 16.1 mph 21.9 mph N/A   Overcast
4:35 PM 27.3 °F 15.2 °F 25.5 °F 93% 30.15 in 10.0 mi ENE 16.1 mph 20.7 mph N/A   Overcast
4:55 PM 27.5 °F 15.4 °F 25.7 °F 93% 30.13 in 10.0 mi ENE 16.1 mph - N/A   Overcast
5:15 PM 27.9 °F 15.5 °F 25.5 °F 91% 30.12 in 10.0 mi East 17.3 mph 23.0 mph N/A   Overcast
5:35 PM 27.9 °F 15.1 °F 25.0 °F 89% 30.11 in 10.0 mi East 18.4 mph 23.0 mph N/A   Overcast
5:55 PM 27.5 °F 13.2 °F 24.6 °F 89% 30.09 in 10.0 mi East 23.0 mph 27.6 mph N/A   Overcast
6:15 PM 27.1 °F 13.4 °F 23.9 °F 88% 30.09 in 10.0 mi East 20.7 mph 28.8 mph N/A   Overcast
6:35 PM 26.4 °F 12.8 °F 23.0 °F 87% 30.09 in 10.0 mi East 19.6 mph 28.8 mph N/A   Overcast
6:55 PM 26.1 °F 12.7 °F 22.3 °F 86% 30.09 in 10.0 mi East 18.4 mph 25.3 mph N/A   Overcast
7:15 PM 26.1 °F 12.0 °F 22.1 °F 85% 30.05 in 10.0 mi East 20.7 mph 24.2 mph N/A   Overcast
7:35 PM 25.7 °F 12.3 °F 22.1 °F 86% 30.04 in 10.0 mi East 18.4 mph 29.9 mph N/A   Overcast
7:55 PM 25.7 °F 13.5 °F 22.1 °F 86% 30.05 in 10.0 mi East 15.0 mph 25.3 mph N/A   Overcast
8:15 PM 25.7 °F 13.5 °F 21.7 °F 85% 30.04 in 10.0 mi East 15.0 mph 20.7 mph N/A   Overcast
8:35 PM 25.7 °F 11.9 °F 21.6 °F 84% 30.02 in 10.0 mi East 19.6 mph 27.6 mph N/A   Overcast
8:55 PM 25.9 °F 12.9 °F 21.7 °F 84% 30.00 in 10.0 mi East 17.3 mph 25.3 mph N/A   Overcast
9:15 PM 26.2 °F 13.4 °F 22.1 °F 84% 30.01 in 10.0 mi East 17.3 mph 24.2 mph N/A   Overcast
9:35 PM 26.4 °F 14.0 °F 22.1 °F 84% 30.00 in 4.0 mi East 16.1 mph 27.6 mph N/A Snow Light Snow
9:55 PM 25.7 °F 13.1 °F 23.0 °F 89% 29.99 in 1.8 mi East 16.1 mph 25.3 mph N/A Snow Light Snow
10:15 PM 25.5 °F 12.9 °F 23.9 °F 94% 29.99 in 0.8 mi East 16.1 mph 24.2 mph N/A Snow Heavy Snow
10:35 PM 25.2 °F 11.6 °F 23.9 °F 95% 29.97 in 0.8 mi East 18.4 mph - N/A Snow Snow
10:55 PM 25.2 °F 11.6 °F 23.9 °F 95% 29.96 in 1.2 mi East 18.4 mph 23.0 mph N/A Snow Light Snow
11:15 PM 25.2 °F 12.0 °F 23.9 °F 95% 29.95 in 1.0 mi East 17.3 mph 21.9 mph N/A Snow Snow
11:35 PM 25.2 °F 12.4 °F 23.9 °F 95% 29.95 in 1.0 mi East 16.1 mph 19.6 mph N/A Snow Snow
11:55 PM 25.3 °F 12.6 °F 24.3 °F 96% 29.93 in 1.2 mi East 16.1 mph 19.6 mph N/A Snow Light Snow